Precipitable_Water
0.31 0.29 0.28 0.27 0.27 0.27 0.26 0.25 0.24 0.23 0.20 0.18 0.16 0.15 0.15 0.15 0.16 0.17 0.17 0.20 0.21 0.17 0.16 0.16 0.17 0.17 0.18 0.19 0.20 0.25 0.32 0.29 0.28 0.31 0.34 0.38 0.40 0.41 0.42 0.45 0.49 0.52 0.56 0.68 0.69 0.69 0.71 0.72 0.72 0.75 0.78 0.78 0.79 0.79 0.80 0.80 0.79 0.81 0.80 0.80 0.76 0.80 0.79 0.78 0.77 0.80 0.81 0.76 0.73 0.76 0.74 0.69 0.73 0.74 0.74 0.75 0.77 0.79 0.79 0.81 0.83 0.85 0.89 0.91 0.95 0.96
0.31 0.30 0.30 0.30 0.29 0.29 0.28 0.27 0.26 0.23 0.19 0.17 0.16 0.16 0.15 0.16 0.15 0.17 0.19 0.23 0.22 0.17 0.17 0.19 0.17 0.17 0.18 0.20 0.23 0.24 0.29 0.31 0.34 0.35 0.38 0.40 0.42 0.46 0.47 0.50 0.53 0.55 0.66 0.68 0.66 0.69 0.71 0.71 0.71 0.73 0.76 0.75 0.72 0.75 0.78 0.77 0.78 0.81 0.83 0.81 0.79 0.79 0.79 0.79 0.81 0.82 0.81 0.79 0.78 0.74 0.74 0.76 0.75 0.73 0.72 0.70 0.73 0.73 0.74 0.74 0.75 0.75 0.74 0.74 0.77 0.82
0.28 0.29 0.31 0.32 0.32 0.32 0.31 0.29 0.27 0.24 0.20 0.18 0.16 0.17 0.16 0.17 0.18 0.20 0.22 0.23 0.23 0.19 0.18 0.21 0.18 0.19 0.21 0.22 0.23 0.22 0.24 0.33 0.39 0.41 0.45 0.43 0.43 0.48 0.51 0.54 0.55 0.55 0.60 0.61 0.65 0.68 0.68 0.70 0.70 0.71 0.73 0.74 0.76 0.76 0.77 0.79 0.80 0.82 0.81 0.82 0.80 0.80 0.80 0.80 0.82 0.80 0.81 0.85 0.85 0.83 0.78 0.81 0.78 0.80 0.77 0.75 0.74 0.75 0.73 0.74 0.73 0.71 0.69 0.68 0.69 0.70
0.26 0.33 0.31 0.34 0.33 0.30 0.30 0.30 0.29 0.27 0.25 0.21 0.18 0.16 0.15 0.19 0.19 0.18 0.24 0.24 0.24 0.21 0.21 0.23 0.20 0.20 0.23 0.24 0.23 0.23 0.22 0.27 0.38 0.42 0.48 0.51 0.49 0.48 0.50 0.54 0.54 0.52 0.58 0.58 0.62 0.63 0.67 0.69 0.70 0.71 0.71 0.73 0.75 0.75 0.77 0.79 0.79 0.81 0.80 0.82 0.81 0.81 0.82 0.80 0.78 0.84 0.86 0.85 0.86 0.84 0.83 0.79 0.79 0.74 0.75 0.76 0.75 0.73 0.71 0.67 0.67 0.67 0.65 0.62 0.64 0.64
0.29 0.32 0.36 0.35 0.35 0.32 0.30 0.33 0.31 0.29 0.28 0.30 0.25 0.22 0.21 0.22 0.21 0.20 0.24 0.27 0.26 0.25 0.23 0.21 0.19 0.18 0.21 0.21 0.23 0.26 0.27 0.28 0.36 0.42 0.43 0.50 0.53 0.60 0.65 0.64 0.65 0.61 0.63 0.63 0.66 0.67 0.67 0.68 0.69 0.69 0.73 0.75 0.73 0.75 0.76 0.79 0.79 0.80 0.81 0.83 0.83 0.83 0.81 0.78 0.78 0.80 0.78 0.77 0.78 0.79 0.78 0.78 0.75 0.76 0.74 0.72 0.70 0.68 0.64 0.64 0.64 0.62 0.65 0.67 0.67 0.70
0.33 0.35 0.37 0.36 0.36 0.35 0.34 0.33 0.34 0.31 0.27 0.30 0.32 0.30 0.26 0.26 0.23 0.23 0.24 0.23 0.21 0.21 0.26 0.21 0.16 0.17 0.23 0.25 0.24 0.27 0.28 0.36 0.45 0.43 0.47 0.52 0.58 0.57 0.55 0.56 0.63 0.65 0.68 0.70 0.71 0.72 0.70 0.70 0.73 0.73 0.74 0.74 0.75 0.75 0.79 0.81 0.82 0.83 0.85 0.86 0.86 0.85 0.84 0.81 0.81 0.79 0.78 0.75 0.73 0.70 0.67 0.64 0.64 0.63 0.66 0.66 0.63 0.64 0.64 0.62 0.65 0.67 0.70 0.70 0.72 0.75
0.32 0.39 0.38 0.35 0.36 0.36 0.36 0.37 0.40 0.35 0.31 0.28 0.35 0.39 0.35 0.30 0.28 0.26 0.24 0.23 0.19 0.18 0.26 0.28 0.18 0.16 0.23 0.24 0.28 0.28 0.30 0.36 0.40 0.39 0.41 0.44 0.48 0.54 0.57 0.60 0.61 0.62 0.64 0.68 0.72 0.76 0.75 0.74 0.74 0.74 0.74 0.76 0.75 0.78 0.82 0.81 0.83 0.85 0.87 0.89 0.88 0.86 0.85 0.87 0.83 0.82 0.80 0.77 0.75 0.73 0.72 0.72 0.68 0.66 0.67 0.68 0.67 0.66 0.65 0.68 0.68 0.68 0.71 0.73 0.71 0.73
0.39 0.39 0.39 0.39 0.37 0.35 0.36 0.36 0.40 0.39 0.32 0.29 0.39 0.41 0.39 0.36 0.32 0.29 0.27 0.26 0.23 0.27 0.29 0.29 0.26 0.20 0.18 0.25 0.31 0.30 0.36 0.39 0.40 0.42 0.43 0.47 0.49 0.49 0.52 0.58 0.61 0.61 0.62 0.64 0.67 0.71 0.78 0.78 0.75 0.73 0.76 0.78 0.79 0.82 0.81 0.81 0.83 0.84 0.86 0.88 0.89 0.89 0.88 0.90 0.89 0.85 0.84 0.79 0.77 0.74 0.74 0.71 0.67 0.66 0.62 0.65 0.68 0.69 0.70 0.69 0.70 0.71 0.70 0.72 0.73 0.73
0.41 0.37 0.38 0.37 0.37 0.37 0.37 0.40 0.42 0.42 0.36 0.38 0.42 0.43 0.39 0.37 0.35 0.34 0.31 0.28 0.28 0.28 0.26 0.27 0.28 0.21 0.19 0.25 0.35 0.37 0.39 0.37 0.38 0.42 0.44 0.48 0.52 0.56 0.57 0.55 0.57 0.65 0.68 0.69 0.68 0.71 0.75 0.78 0.79 0.79 0.78 0.81 0.84 0.84 0.80 0.81 0.82 0.84 0.87 0.89 0.91 0.92 0.90 0.91 0.91 0.89 0.86 0.84 0.80 0.77 0.73 0.65 0.68 0.67 0.66 0.69 0.69 0.69 0.70 0.67 0.68 0.70 0.68 0.69 0.72 0.74
0.41 0.42 0.42 0.42 0.38 0.36 0.41 0.44 0.45 0.44 0.38 0.43 0.44 0.44 0.43 0.40 0.38 0.35 0.33 0.31 0.31 0.28 0.25 0.28 0.30 0.24 0.18 0.37 0.41 0.40 0.38 0.39 0.41 0.44 0.48 0.50 0.51 0.55 0.59 0.62 0.59 0.57 0.64 0.70 0.73 0.76 0.82 0.85 0.84 0.85 0.86 0.87 0.87 0.87 0.86 0.85 0.84 0.83 0.85 0.86 0.87 0.89 0.91 0.92 0.90 0.88 0.88 0.85 0.82 0.77 0.72 0.65 0.64 0.65 0.67 0.69 0.68 0.69 0.71 0.67 0.68 0.69 0.70 0.70 0.71 0.73
0.41 0.48 0.49 0.41 0.38 0.41 0.41 0.43 0.44 0.44 0.45 0.48 0.45 0.43 0.39 0.40 0.38 0.36 0.34 0.32 0.29 0.24 0.27 0.32 0.32 0.29 0.24 0.37 0.41 0.36 0.38 0.46 0.47 0.48 0.51 0.53 0.54 0.56 0.59 0.64 0.65 0.62 0.62 0.69 0.74 0.76 0.82 0.95 0.96 0.91 0.87 0.88 0.90 0.88 0.87 0.87 0.86 0.85 0.84 0.86 0.87 0.90 0.93 0.95 0.93 0.91 0.88 0.88 0.85 0.79 0.72 0.66 0.63 0.64 0.65 0.67 0.66 0.70 0.69 0.67 0.66 0.67 0.68 0.71 0.71 0.73
0.40 0.41 0.40 0.41 0.43 0.41 0.41 0.35 0.44 0.43 0.40 0.38 0.37 0.39 0.38 0.37 0.42 0.35 0.34 0.32 0.23 0.23 0.31 0.35 0.32 0.33 0.23 0.36 0.47 0.49 0.53 0.54 0.52 0.49 0.51 0.52 0.54 0.56 0.58 0.62 0.68 0.71 0.70 0.73 0.75 0.76 0.79 0.89 1.01 1.04 0.95 0.91 0.91 0.90 0.87 0.88 0.89 0.90 0.88 0.86 0.88 0.94 0.98 0.97 0.97 0.95 0.93 0.91 0.87 0.82 0.73 0.67 0.67 0.65 0.66 0.66 0.66 0.67 0.67 0.66 0.66 0.68 0.69 0.70 0.73 0.76
0.33 0.35 0.36 0.37 0.40 0.34 0.31 0.26 0.33 0.34 0.37 0.35 0.32 0.32 0.24 0.25 0.29 0.29 0.32 0.26 0.25 0.22 0.32 0.36 0.34 0.29 0.32 0.45 0.52 0.55 0.56 0.57 0.57 0.57 0.56 0.57 0.58 0.60 0.61 0.62 0.65 0.72 0.75 0.77 0.78 0.80 0.82 0.87 0.96 1.01 1.04 1.00 0.96 0.91 0.93 0.91 0.90 0.91 0.91 0.89 0.88 0.93 1.01 1.01 0.99 0.94 0.92 0.90 0.87 0.81 0.74 0.70 0.69 0.68 0.69 0.69 0.68 0.68 0.67 0.68 0.68 0.70 0.70 0.73 0.72 0.74
0.25 0.30 0.35 0.29 0.36 0.34 0.33 0.22 0.23 0.25 0.31 0.34 0.33 0.30 0.24 0.21 0.21 0.22 0.27 0.30 0.30 0.33 0.35 0.35 0.37 0.32 0.44 0.49 0.57 0.57 0.60 0.62 0.63 0.64 0.65 0.63 0.63 0.63 0.64 0.65 0.65 0.67 0.72 0.80 0.84 0.84 0.86 0.88 0.94 1.03 1.05 1.05 1.01 0.99 0.98 0.98 0.93 0.92 0.92 0.93 0.91 0.94 1.03 1.05 1.02 0.97 0.91 0.87 0.84 0.80 0.75 0.73 0.71 0.70 0.72 0.72 0.69 0.69 0.71 0.72 0.73 0.74 0.74 0.73 0.73 0.73
0.15 0.17 0.29 0.25 0.25 0.34 0.34 0.31 0.30 0.28 0.30 0.35 0.36 0.36 0.29 0.29 0.26 0.20 0.24 0.24 0.24 0.29 0.32 0.37 0.29 0.30 0.32 0.38 0.60 0.62 0.65 0.65 0.67 0.67 0.69 0.70 0.70 0.70 0.70 0.71 0.69 0.68 0.69 0.73 0.79 0.86 0.92 0.93 0.98 0.99 1.04 1.09 1.09 1.08 1.06 1.04 1.03 0.98 0.94 0.94 0.94 0.95 1.03 1.08 1.07 0.99 0.90 0.83 0.80 0.77 0.76 0.74 0.72 0.73 0.74 0.73 0.73 0.73 0.74 0.76 0.76 0.77 0.78 0.76 0.76 0.76
0.20 0.22 0.32 0.33 0.32 0.37 0.34 0.40 0.40 0.34 0.37 0.39 0.37 0.38 0.35 0.29 0.33 0.24 0.33 0.29 0.29 0.29 0.28 0.31 0.30 0.38 0.40 0.58 0.63 0.66 0.68 0.67 0.65 0.66 0.66 0.66 0.69 0.71 0.70 0.70 0.70 0.71 0.71 0.72 0.74 0.78 0.84 0.95 0.98 0.98 1.00 1.04 1.11 1.12 1.12 1.10 1.10 1.05 0.99 0.98 0.99 1.00 1.04 1.12 1.09 1.02 0.91 0.83 0.78 0.74 0.73 0.73 0.74 0.75 0.75 0.75 0.76 0.78 0.79 0.78 0.79 0.79 0.80 0.80 0.79 0.79
0.19 0.18 0.30 0.33 0.37 0.37 0.38 0.42 0.41 0.40 0.25 0.34 0.38 0.34 0.36 0.42 0.36 0.31 0.28 0.31 0.30 0.24 0.25 0.35 0.34 0.38 0.49 0.52 0.59 0.62 0.62 0.61 0.63 0.63 0.64 0.66 0.68 0.69 0.67 0.69 0.71 0.74 0.74 0.74 0.73 0.75 0.78 0.86 0.94 1.02 1.04 1.04 1.07 1.10 1.13 1.13 1.13 1.12 1.12 1.07 1.02 1.05 1.07 1.14 1.15 1.09 0.97 0.87 0.78 0.73 0.73 0.73 0.75 0.74 0.75 0.74 0.76 0.78 0.81 0.82 0.81 0.82 0.83 0.83 0.82 0.80
0.18 0.22 0.33 0.28 0.30 0.39 0.44 0.46 0.44 0.43 0.41 0.40 0.33 0.32 0.40 0.44 0.38 0.31 0.25 0.27 0.21 0.18 0.26 0.28 0.29 0.32 0.33 0.31 0.59 0.57 0.56 0.59 0.60 0.62 0.65 0.66 0.68 0.66 0.67 0.70 0.72 0.73 0.76 0.78 0.76 0.77 0.79 0.83 0.89 0.98 1.05 1.08 1.12 1.13 1.12 1.13 1.18 1.19 1.19 1.15 1.09 1.07 1.08 1.10 1.08 1.08 1.03 0.91 0.79 0.75 0.74 0.75 0.77 0.77 0.78 0.78 0.78 0.80 0.80 0.82 0.83 0.85 0.83 0.84 0.84 0.83
0.28 0.23 0.29 0.30 0.33 0.36 0.44 0.46 0.41 0.46 0.43 0.37 0.35 0.45 0.34 0.30 0.26 0.34 0.25 0.19 0.19 0.19 0.21 0.29 0.29 0.31 0.33 0.35 0.47 0.50 0.54 0.57 0.59 0.63 0.63 0.63 0.65 0.67 0.68 0.71 0.73 0.75 0.77 0.78 0.76 0.76 0.78 0.83 0.87 0.93 1.01 1.06 1.08 1.12 1.14 1.17 1.20 1.21 1.21 1.22 1.20 1.14 1.10 1.08 1.08 1.04 1.07 0.96 0.82 0.78 0.78 0.77 0.77 0.79 0.81 0.81 0.81 0.81 0.81 0.81 0.84 0.84 0.86 0.87 0.86 0.84
0.36 0.22 0.26 0.34 0.32 0.36 0.39 0.39 0.26 0.35 0.43 0.46 0.51 0.44 0.44 0.40 0.30 0.29 0.30 0.24 0.23 0.20 0.18 0.24 0.27 0.27 0.39 0.41 0.47 0.49 0.53 0.57 0.60 0.61 0.63 0.66 0.67 0.70 0.71 0.72 0.73 0.74 0.76 0.77 0.78 0.78 0.80 0.84 0.88 0.91 0.98 1.02 1.05 1.07 1.10 1.13 1.14 1.16 1.18 1.20 1.20 1.18 1.15 1.12 1.07 1.05 1.04 1.02 0.85 0.79 0.80 0.79 0.79 0.81 0.83 0.83 0.82 0.81 0.81 0.83 0.84 0.86 0.86 0.88 0.89 0.86
0.29 0.30 0.21 0.28 0.35 0.37 0.26 0.34 0.30 0.34 0.32 0.33 0.36 0.33 0.37 0.37 0.39 0.38 0.35 0.29 0.26 0.22 0.21 0.20 0.18 0.30 0.40 0.49 0.46 0.47 0.51 0.56 0.57 0.57 0.61 0.65 0.68 0.72 0.73 0.74 0.76 0.77 0.77 0.78 0.80 0.80 0.81 0.83 0.87 0.91 0.97 1.03 1.07 1.09 1.11 1.11 1.11 1.14 1.18 1.18 1.20 1.17 1.14 1.09 1.08 1.06 1.08 1.09 0.96 0.84 0.79 0.79 0.81 0.83 0.85 0.85 0.84 0.84 0.84 0.85 0.86 0.87 0.88 0.91 0.90 0.88
0.32 0.29 0.22 0.27 0.29 0.27 0.27 0.38 0.37 0.36 0.36 0.32 0.33 0.30 0.33 0.31 0.30 0.27 0.25 0.35 0.32 0.28 0.24 0.21 0.21 0.30 0.47 0.54 0.49 0.49 0.52 0.53 0.57 0.57 0.59 0.63 0.68 0.72 0.74 0.76 0.79 0.78 0.80 0.81 0.81 0.81 0.81 0.82 0.87 0.90 0.94 1.00 1.04 1.05 1.06 1.09 1.12 1.13 1.14 1.17 1.18 1.17 1.16 1.15 1.10 1.08 1.09 1.10 1.07 0.93 0.84 0.83 0.86 0.87 0.86 0.84 0.85 0.85 0.86 0.86 0.87 0.89 0.91 0.91 0.92 0.89
0.39 0.34 0.31 0.23 0.24 0.28 0.34 0.41 0.45 0.43 0.41 0.38 0.36 0.32 0.37 0.35 0.35 0.30 0.21 0.25 0.31 0.32 0.32 0.31 0.25 0.31 0.53 0.55 0.53 0.52 0.52 0.55 0.57 0.59 0.58 0.63 0.68 0.71 0.73 0.76 0.78 0.80 0.80 0.81 0.82 0.83 0.83 0.84 0.85 0.87 0.89 0.93 0.97 1.02 1.05 1.07 1.07 1.10 1.14 1.16 1.16 1.15 1.15 1.17 1.18 1.16 1.13 1.13 1.10 1.00 0.91 0.88 0.87 0.87 0.86 0.85 0.86 0.88 0.89 0.89 0.90 0.92 0.91 0.93 0.94 0.90
0.41 0.31 0.28 0.28 0.31 0.34 0.40 0.41 0.45 0.43 0.41 0.34 0.36 0.37 0.35 0.31 0.32 0.30 0.30 0.32 0.27 0.30 0.27 0.29 0.24 0.34 0.51 0.56 0.54 0.53 0.54 0.55 0.57 0.59 0.59 0.63 0.66 0.68 0.69 0.72 0.75 0.76 0.79 0.81 0.83 0.84 0.84 0.85 0.86 0.86 0.86 0.88 0.91 0.95 0.99 1.04 1.07 1.09 1.10 1.12 1.14 1.13 1.16 1.17 1.17 1.14 1.15 1.16 1.11 1.06 0.98 0.89 0.88 0.87 0.88 0.86 0.88 0.89 0.92 0.93 0.93 0.92 0.92 0.95 0.96 0.91
0.37 0.31 0.29 0.23 0.24 0.28 0.34 0.37 0.40 0.43 0.39 0.31 0.31 0.36 0.38 0.40 0.38 0.36 0.36 0.36 0.29 0.30 0.29 0.26 0.21 0.30 0.47 0.53 0.52 0.51 0.51 0.53 0.55 0.59 0.62 0.61 0.64 0.65 0.67 0.69 0.72 0.74 0.76 0.79 0.80 0.81 0.83 0.82 0.83 0.85 0.87 0.87 0.89 0.92 0.96 0.99 1.01 1.03 1.05 1.08 1.11 1.13 1.16 1.16 1.16 1.11 1.11 1.12 1.08 1.07 0.98 0.97 0.94 0.91 0.90 0.89 0.90 0.90 0.92 0.94 0.94 0.93 0.94 0.96 0.96 0.94
0.34 0.28 0.28 0.19 0.14 0.13 0.14 0.15 0.19 0.23 0.27 0.31 0.34 0.35 0.36 0.36 0.35 0.36 0.28 0.30 0.27 0.30 0.30 0.26 0.27 0.36 0.46 0.49 0.49 0.50 0.50 0.51 0.56 0.57 0.60 0.62 0.64 0.64 0.65 0.67 0.70 0.72 0.73 0.75 0.76 0.78 0.79 0.81 0.83 0.85 0.87 0.89 0.92 0.93 0.95 0.98 1.02 1.03 1.03 1.04 1.08 1.10 1.12 1.15 1.17 1.13 1.12 1.11 1.08 1.05 0.97 0.91 0.91 0.91 0.95 0.91 0.91 0.91 0.92 0.93 0.93 0.93 0.94 0.96 0.95 0.96
0.32 0.34 0.31 0.25 0.21 0.20 0.22 0.26 0.34 0.34 0.32 0.25 0.29 0.32 0.33 0.36 0.39 0.38 0.35 0.29 0.24 0.28 0.29 0.31 0.30 0.33 0.37 0.41 0.42 0.45 0.47 0.47 0.51 0.54 0.56 0.59 0.62 0.65 0.66 0.67 0.68 0.70 0.72 0.73 0.74 0.76 0.78 0.79 0.81 0.82 0.84 0.88 0.92 0.93 0.95 0.97 1.00 1.03 1.06 1.05 1.08 1.12 1.12 1.13 1.15 1.13 1.13 1.12 1.10 1.05 1.01 0.95 0.92 0.95 0.96 0.96 0.95 0.94 0.95 0.94 0.93 0.93 0.93 0.95 0.95 0.95
0.36 0.27 0.30 0.28 0.27 0.28 0.30 0.30 0.33 0.33 0.27 0.30 0.29 0.30 0.33 0.33 0.35 0.33 0.28 0.24 0.32 0.30 0.25 0.33 0.34 0.31 0.34 0.37 0.38 0.41 0.44 0.47 0.51 0.54 0.56 0.57 0.59 0.60 0.62 0.65 0.66 0.68 0.70 0.72 0.74 0.75 0.74 0.77 0.79 0.80 0.83 0.84 0.87 0.91 0.93 0.95 0.97 1.00 1.03 1.05 1.08 1.10 1.11 1.14 1.16 1.15 1.13 1.11 1.10 1.08 1.06 1.03 1.00 0.98 0.97 0.99 1.01 1.00 0.99 0.97 0.95 0.94 0.94 0.95 0.95 0.95
0.34 0.25 0.28 0.29 0.29 0.30 0.31 0.32 0.33 0.32 0.31 0.30 0.31 0.31 0.30 0.32 0.32 0.28 0.28 0.33 0.34 0.26 0.25 0.31 0.32 0.30 0.33 0.35 0.38 0.40 0.43 0.46 0.49 0.52 0.54 0.55 0.57 0.58 0.58 0.58 0.60 0.63 0.66 0.68 0.72 0.74 0.75 0.75 0.76 0.78 0.81 0.84 0.83 0.84 0.88 0.90 0.93 0.96 0.99 1.05 1.11 1.15 1.11 1.13 1.14 1.13 1.11 1.10 1.08 1.07 1.08 1.08 1.07 1.06 1.02 0.99 0.99 1.00 1.00 0.99 0.99 0.98 0.96 0.95 0.95 0.95
0.35 0.28 0.27 0.28 0.26 0.29 0.29 0.30 0.33 0.32 0.30 0.31 0.29 0.31 0.32 0.32 0.31 0.32 0.31 0.33 0.33 0.29 0.31 0.31 0.31 0.31 0.34 0.35 0.38 0.41 0.46 0.49 0.51 0.53 0.54 0.52 0.52 0.54 0.54 0.55 0.56 0.59 0.61 0.64 0.67 0.71 0.73 0.75 0.76 0.78 0.80 0.81 0.84 0.83 0.85 0.87 0.89 0.93 0.95 0.97 1.02 1.07 1.13 1.15 1.13 1.14 1.12 1.11 1.10 1.10 1.09 1.09 1.10 1.10 1.10 1.02 0.97 0.99 1.00 0.99 0.98 0.97 0.96 0.95 0.96 0.96
0.30 0.31 0.27 0.26 0.25 0.27 0.29 0.31 0.33 0.30 0.29 0.27 0.29 0.31 0.32 0.32 0.32 0.32 0.32 0.32 0.31 0.31 0.30 0.30 0.31 0.30 0.37 0.39 0.39 0.44 0.47 0.49 0.49 0.47 0.47 0.49 0.51 0.52 0.51 0.51 0.51 0.53 0.58 0.62 0.65 0.67 0.70 0.73 0.74 0.76 0.77 0.78 0.81 0.81 0.84 0.86 0.88 0.92 0.95 0.98 1.00 1.02 1.07 1.10 1.09 1.11 1.10 1.12 1.11 1.09 1.08 1.09 1.09 1.11 1.07 1.02 0.99 0.99 1.00 1.00 1.01 1.00 0.97 0.96 0.95 0.94
0.29 0.27 0.27 0.26 0.21 0.23 0.28 0.30 0.30 0.29 0.29 0.27 0.28 0.29 0.29 0.28 0.27 0.30 0.28 0.33 0.29 0.28 0.29 0.27 0.28 0.28 0.34 0.38 0.38 0.40 0.41 0.42 0.42 0.43 0.44 0.46 0.49 0.50 0.50 0.50 0.50 0.51 0.52 0.56 0.61 0.64 0.66 0.68 0.71 0.73 0.75 0.77 0.79 0.81 0.81 0.82 0.84 0.85 0.87 0.92 0.96 1.01 1.07 1.08 1.07 1.06 1.09 1.11 1.09 1.11 1.11 1.10 1.10 1.10 1.07 1.04 0.99 1.01 1.01 1.00 0.99 0.98 0.96 0.93 0.92 0.92
0.26 0.26 0.26 0.24 0.21 0.21 0.25 0.28 0.29 0.28 0.28 0.24 0.27 0.30 0.30 0.31 0.32 0.33 0.34 0.35 0.36 0.35 0.30 0.23 0.25 0.33 0.35 0.38 0.35 0.35 0.36 0.37 0.39 0.40 0.41 0.45 0.48 0.49 0.49 0.49 0.50 0.51 0.52 0.52 0.54 0.57 0.61 0.65 0.69 0.72 0.76 0.78 0.78 0.78 0.81 0.83 0.83 0.83 0.85 0.88 0.92 0.98 1.00 1.02 1.03 1.04 1.07 1.10 1.04 1.09 1.12 1.11 1.09 1.09 1.07 1.05 1.02 1.02 1.02 1.00 0.99 0.98 0.95 0.93 0.92 0.92
0.28 0.27 0.24 0.23 0.19 0.22 0.25 0.26 0.29 0.25 0.17 0.18 0.34 0.37 0.34 0.30 0.32 0.29 0.30 0.32 0.37 0.39 0.36 0.38 0.37 0.38 0.37 0.36 0.35 0.34 0.35 0.37 0.40 0.42 0.46 0.47 0.47 0.47 0.49 0.50 0.50 0.50 0.50 0.52 0.53 0.54 0.57 0.61 0.64 0.68 0.72 0.76 0.78 0.80 0.82 0.84 0.86 0.87 0.87 0.87 0.90 0.91 0.94 0.96 0.99 1.01 1.03 1.07 1.09 1.11 1.12 1.11 1.09 1.08 1.06 1.05 1.04 1.03 0.98 1.00 0.99 0.98 0.97 0.95 0.93 0.94
0.28 0.26 0.24 0.23 0.21 0.21 0.25 0.25 0.22 0.15 0.17 0.33 0.37 0.38 0.38 0.36 0.36 0.33 0.33 0.35 0.37 0.41 0.42 0.40 0.39 0.37 0.37 0.37 0.37 0.37 0.38 0.42 0.45 0.46 0.49 0.51 0.50 0.48 0.46 0.46 0.45 0.45 0.47 0.48 0.51 0.53 0.55 0.57 0.59 0.62 0.65 0.69 0.73 0.78 0.80 0.81 0.83 0.85 0.86 0.87 0.87 0.91 0.91 0.93 0.95 0.98 1.01 1.03 1.07 1.09 1.10 1.10 1.08 1.09 1.10 1.07 1.06 1.01 0.95 0.96 0.99 1.00 0.98 0.96 0.94 0.95
0.26 0.25 0.25 0.22 0.22 0.24 0.20 0.21 0.12 0.14 0.27 0.30 0.33 0.37 0.38 0.37 0.35 0.33 0.30 0.36 0.40 0.40 0.40 0.38 0.40 0.38 0.37 0.37 0.37 0.40 0.41 0.43 0.50 0.53 0.53 0.53 0.50 0.45 0.42 0.42 0.44 0.46 0.47 0.48 0.49 0.52 0.54 0.56 0.58 0.59 0.61 0.66 0.71 0.74 0.77 0.77 0.81 0.81 0.81 0.84 0.85 0.86 0.89 0.90 0.92 0.95 0.98 0.98 1.02 1.05 1.08 1.08 1.06 1.06 1.06 1.05 1.04 1.00 0.96 0.94 0.95 0.98 0.99 0.97 0.97 0.96
0.32 0.28 0.25 0.24 0.25 0.18 0.18 0.17 0.16 0.22 0.21 0.28 0.28 0.33 0.33 0.30 0.31 0.28 0.20 0.25 0.39 0.38 0.39 0.37 0.37 0.36 0.36 0.37 0.36 0.38 0.41 0.44 0.45 0.48 0.54 0.50 0.48 0.46 0.44 0.45 0.46 0.47 0.49 0.51 0.53 0.53 0.56 0.57 0.58 0.61 0.63 0.65 0.68 0.71 0.73 0.76 0.78 0.78 0.79 0.79 0.81 0.83 0.85 0.87 0.88 0.92 0.96 0.97 0.99 1.02 1.04 1.05 1.05 1.05 1.05 1.04 1.02 1.01 1.02 1.02 1.02 1.01 1.01 0.96 0.95 0.92
0.34 0.29 0.30 0.21 0.24 0.23 0.18 0.17 0.17 0.17 0.15 0.23 0.30 0.38 0.39 0.39 0.38 0.34 0.30 0.25 0.38 0.39 0.42 0.37 0.34 0.34 0.35 0.36 0.36 0.36 0.40 0.35 0.36 0.40 0.49 0.49 0.48 0.46 0.48 0.49 0.49 0.49 0.51 0.51 0.53 0.52 0.53 0.56 0.59 0.62 0.64 0.64 0.65 0.67 0.70 0.74 0.75 0.76 0.76 0.78 0.80 0.79 0.81 0.82 0.85 0.88 0.91 0.93 0.96 1.00 1.03 1.03 1.02 1.03 1.04 1.03 1.02 1.01 1.01 1.02 1.00 0.99 0.99 0.94 0.91 0.88
0.35 0.33 0.30 0.24 0.21 0.21 0.19 0.16 0.15 0.12 0.15 0.27 0.30 0.35 0.41 0.41 0.38 0.38 0.26 0.20 0.38 0.39 0.39 0.36 0.34 0.35 0.36 0.35 0.35 0.38 0.35 0.28 0.30 0.37 0.50 0.48 0.46 0.48 0.46 0.47 0.48 0.49 0.51 0.51 0.50 0.47 0.48 0.53 0.55 0.58 0.61 0.63 0.63 0.66 0.68 0.69 0.70 0.73 0.73 0.75 0.76 0.77 0.77 0.78 0.80 0.84 0.87 0.90 0.94 0.97 0.99 0.99 0.99 0.99 0.98 1.00 1.02 1.01 0.98 0.99 0.98 0.95 0.95 0.95 0.93 0.91
0.33 0.33 0.29 0.25 0.23 0.22 0.19 0.16 0.15 0.18 0.16 0.26 0.33 0.36 0.40 0.44 0.38 0.36 0.18 0.19 0.38 0.38 0.37 0.37 0.35 0.35 0.36 0.37 0.37 0.37 0.35 0.30 0.33 0.38 0.45 0.46 0.45 0.47 0.46 0.46 0.47 0.48 0.49 0.50 0.51 0.50 0.51 0.50 0.49 0.52 0.55 0.56 0.59 0.65 0.67 0.67 0.67 0.67 0.70 0.72 0.75 0.76 0.76 0.77 0.79 0.81 0.84 0.87 0.90 0.93 0.95 0.96 0.95 0.96 0.98 0.97 0.98 1.01 1.01 1.00 0.99 0.98 0.97 0.94 0.92 0.90
0.29 0.29 0.27 0.21 0.22 0.24 0.19 0.18 0.19 0.21 0.29 0.35 0.36 0.40 0.42 0.44 0.39 0.21 0.18 0.29 0.39 0.38 0.39 0.39 0.37 0.38 0.39 0.37 0.37 0.32 0.39 0.41 0.42 0.45 0.47 0.47 0.46 0.45 0.46 0.48 0.48 0.50 0.49 0.51 0.51 0.54 0.52 0.49 0.49 0.47 0.48 0.53 0.58 0.60 0.61 0.62 0.62 0.63 0.65 0.67 0.69 0.72 0.75 0.79 0.81 0.81 0.82 0.83 0.84 0.88 0.90 0.92 0.92 0.92 0.95 0.97 0.96 0.96 0.97 0.96 0.94 0.94 0.92 0.92 0.91 0.89
0.28 0.26 0.25 0.25 0.21 0.21 0.23 0.19 0.19 0.21 0.32 0.36 0.39 0.43 0.45 0.36 0.23 0.22 0.40 0.42 0.39 0.36 0.39 0.40 0.38 0.40 0.40 0.39 0.39 0.39 0.42 0.46 0.47 0.48 0.47 0.46 0.46 0.47 0.48 0.47 0.47 0.48 0.50 0.51 0.52 0.53 0.51 0.49 0.49 0.49 0.48 0.49 0.51 0.55 0.58 0.57 0.56 0.58 0.60 0.62 0.65 0.69 0.73 0.76 0.79 0.80 0.81 0.81 0.81 0.82 0.84 0.87 0.89 0.91 0.92 0.93 0.94 0.93 0.92 0.95 0.96 0.94 0.92 0.91 0.90 0.87
0.24 0.22 0.22 0.24 0.26 0.25 0.22 0.20 0.19 0.16 0.32 0.39 0.41 0.41 0.45 0.28 0.29 0.42 0.42 0.44 0.43 0.42 0.40 0.41 0.41 0.41 0.43 0.41 0.44 0.43 0.45 0.45 0.47 0.47 0.47 0.47 0.48 0.48 0.48 0.49 0.48 0.48 0.47 0.46 0.46 0.49 0.48 0.46 0.46 0.45 0.48 0.50 0.51 0.51 0.51 0.52 0.51 0.51 0.53 0.55 0.62 0.67 0.70 0.72 0.74 0.77 0.78 0.79 0.79 0.80 0.81 0.83 0.85 0.86 0.89 0.90 0.92 0.91 0.89 0.92 0.91 0.91 0.92 0.91 0.88 0.85
0.35 0.23 0.23 0.27 0.28 0.20 0.22 0.20 0.21 0.31 0.34 0.41 0.37 0.29 0.42 0.40 0.42 0.45 0.44 0.41 0.45 0.45 0.43 0.43 0.43 0.46 0.46 0.45 0.45 0.45 0.46 0.46 0.47 0.48 0.48 0.49 0.49 0.49 0.48 0.48 0.50 0.50 0.49 0.49 0.47 0.46 0.43 0.41 0.40 0.41 0.44 0.48 0.49 0.51 0.51 0.50 0.48 0.48 0.46 0.50 0.57 0.62 0.65 0.68 0.71 0.73 0.73 0.75 0.77 0.79 0.81 0.82 0.83 0.85 0.86 0.87 0.88 0.88 0.88 0.88 0.88 0.88 0.89 0.89 0.88 0.84
0.37 0.28 0.31 0.26 0.35 0.24 0.23 0.28 0.37 0.39 0.41 0.42 0.40 0.40 0.42 0.47 0.49 0.49 0.48 0.46 0.43 0.44 0.48 0.45 0.46 0.48 0.50 0.49 0.48 0.47 0.46 0.49 0.49 0.50 0.49 0.48 0.47 0.45 0.45 0.46 0.47 0.48 0.47 0.44 0.43 0.43 0.41 0.40 0.39 0.39 0.39 0.40 0.42 0.45 0.49 0.50 0.49 0.48 0.47 0.51 0.54 0.55 0.57 0.60 0.64 0.66 0.69 0.71 0.74 0.75 0.77 0.79 0.80 0.81 0.83 0.85 0.85 0.84 0.85 0.85 0.84 0.82 0.87 0.87 0.87 0.84
0.37 0.36 0.39 0.32 0.30 0.37 0.38 0.35 0.35 0.37 0.40 0.41 0.45 0.46 0.45 0.47 0.48 0.48 0.48 0.46 0.47 0.48 0.50 0.49 0.50 0.49 0.49 0.51 0.47 0.47 0.48 0.49 0.48 0.49 0.49 0.47 0.44 0.44 0.45 0.45 0.46 0.47 0.45 0.44 0.43 0.44 0.44 0.44 0.43 0.42 0.39 0.39 0.40 0.40 0.42 0.45 0.48 0.46 0.49 0.52 0.54 0.55 0.55 0.55 0.54 0.56 0.59 0.64 0.70 0.74 0.76 0.75 0.77 0.78 0.80 0.81 0.82 0.83 0.84 0.84 0.81 0.80 0.82 0.85 0.85 0.84
0.36 0.38 0.35 0.29 0.37 0.31 0.26 0.40 0.34 0.35 0.39 0.41 0.43 0.47 0.50 0.49 0.46 0.48 0.47 0.49 0.50 0.51 0.51 0.53 0.53 0.52 0.52 0.52 0.50 0.49 0.49 0.51 0.50 0.49 0.47 0.45 0.44 0.45 0.46 0.46 0.46 0.46 0.45 0.44 0.45 0.46 0.46 0.45 0.43 0.42 0.42 0.41 0.41 0.41 0.41 0.41 0.44 0.47 0.49 0.51 0.52 0.55 0.56 0.56 0.53 0.50 0.50 0.53 0.60 0.68 0.73 0.75 0.75 0.76 0.78 0.79 0.80 0.80 0.81 0.82 0.81 0.81 0.81 0.81 0.79 0.79
0.34 0.43 0.34 0.33 0.33 0.30 0.28 0.34 0.39 0.42 0.40 0.41 0.42 0.42 0.43 0.46 0.49 0.50 0.50 0.51 0.52 0.53 0.53 0.54 0.55 0.53 0.55 0.52 0.53 0.51 0.50 0.51 0.48 0.45 0.44 0.44 0.45 0.47 0.47 0.48 0.47 0.47 0.49 0.50 0.50 0.49 0.48 0.46 0.45 0.44 0.45 0.43 0.43 0.43 0.42 0.41 0.42 0.44 0.47 0.49 0.52 0.55 0.57 0.56 0.54 0.49 0.46 0.47 0.50 0.57 0.64 0.69 0.72 0.73 0.73 0.76 0.77 0.77 0.77 0.77 0.79 0.79 0.78 0.78 0.77 0.75
0.39 0.37 0.28 0.34 0.31 0.33 0.35 0.36 0.37 0.38 0.38 0.38 0.42 0.46 0.47 0.46 0.47 0.49 0.51 0.52 0.53 0.53 0.54 0.56 0.58 0.57 0.55 0.53 0.53 0.52 0.50 0.49 0.47 0.47 0.46 0.47 0.47 0.47 0.47 0.48 0.48 0.48 0.49 0.49 0.51 0.52 0.52 0.50 0.49 0.49 0.48 0.46 0.44 0.43 0.41 0.41 0.42 0.43 0.45 0.48 0.51 0.56 0.55 0.54 0.52 0.51 0.50 0.51 0.51 0.54 0.58 0.63 0.67 0.70 0.73 0.75 0.77 0.78 0.78 0.76 0.76 0.77 0.80 0.83 0.82 0.80
0.35 0.30 0.35 0.34 0.28 0.26 0.27 0.31 0.36 0.28 0.29 0.36 0.44 0.47 0.49 0.53 0.53 0.50 0.50 0.50 0.52 0.52 0.53 0.52 0.54 0.59 0.60 0.59 0.56 0.53 0.49 0.47 0.48 0.49 0.49 0.49 0.49 0.49 0.48 0.47 0.46 0.46 0.46 0.47 0.48 0.48 0.48 0.49 0.49 0.49 0.48 0.46 0.43 0.42 0.41 0.41 0.41 0.43 0.45 0.47 0.50 0.56 0.56 0.54 0.52 0.51 0.51 0.52 0.52 0.54 0.57 0.60 0.62 0.65 0.69 0.72 0.74 0.76 0.78 0.82 0.81 0.80 0.80 0.80 0.83 0.83
0.34 0.34 0.34 0.31 0.28 0.26 0.33 0.37 0.39 0.37 0.36 0.37 0.41 0.45 0.49 0.52 0.53 0.49 0.48 0.49 0.50 0.52 0.53 0.53 0.52 0.53 0.54 0.54 0.53 0.51 0.52 0.51 0.51 0.52 0.49 0.49 0.48 0.48 0.47 0.46 0.43 0.41 0.40 0.41 0.40 0.41 0.44 0.45 0.46 0.45 0.43 0.42 0.42 0.40 0.39 0.40 0.40 0.41 0.44 0.48 0.49 0.52 0.53 0.53 0.51 0.50 0.49 0.51 0.54 0.56 0.57 0.57 0.57 0.59 0.63 0.67 0.71 0.73 0.74 0.76 0.79 0.81 0.81 0.81 0.83 0.84
Wind_Speed
5 4 4 5 6 7 8 9 10 10 11 12 13 14 14 14 14 13 13 12 13 14 15 15 15 15 14 14 12 12 13 14 15 15 15 15 15 14 14 14 13 13 12 12 13 13 13 12 11 10 9 9 8 7 7 7 6 5 5 5 5 5 4 4 4 4 4 3 3 3 3 3 4 4 5 6 6 7 7 7 8 8 9 9 8 6
5 5 5 6 8 8 9 9 9 10 11 11 12 13 14 15 14 14 13 12 13 14 13 13 14 15 15 14 12 12 13 14 14 15 15 16 16 15 14 14 13 12 11 12 13 14 14 13 12 12 11 10 9 8 8 8 7 6 6 5 5 5 5 5 5 4 4 4 4 3 4 4 4 4 5 6 6 7 7 7 8 8 9 9 8 7
4 5 6 7 8 8 8 8 9 10 10 11 11 11 12 13 13 13 13 12 13 13 12 12 13 14 14 13 12 12 13 13 14 14 15 16 16 15 15 14 14 13 12 13 14 14 15 14 13 13 12 11 10 10 9 9 8 7 7 7 6 6 6 6 6 5 5 5 4 4 4 4 5 5 5 6 6 7 7 7 8 8 8 8 8 8
5 6 8 8 8 9 8 8 8 9 9 10 10 11 11 10 12 12 11 11 12 13 13 13 13 14 13 12 12 11 11 12 12 13 13 15 16 16 15 15 15 14 14 14 15 15 15 15 15 14 13 12 11 11 10 10 9 9 8 8 8 7 7 7 7 6 6 5 5 5 5 5 5 5 5 6 6 7 7 7 7 7 8 8 8 8
5 8 9 9 9 10 10 9 9 10 9 8 9 10 11 10 11 12 11 11 12 13 14 14 15 15 13 12 11 9 10 10 11 11 12 14 15 16 15 15 15 15 15 15 15 16 16 16 16 15 14 13 12 12 11 11 10 10 10 10 9 9 8 8 8 7 6 6 6 6 6 6 6 5 6 6 6 7 7 7 7 7 7 7 7 7
7 9 10 10 10 10 11 10 10 10 10 9 7 9 10 11 12 13 13 13 14 14 12 13 15 14 13 12 10 9 9 8 8 9 10 12 14 16 16 16 16 16 16 16 16 16 16 16 16 16 15 14 13 13 12 12 11 11 11 11 11 10 10 9 9 8 8 7 7 7 7 6 6 6 6 6 6 6 7 7 7 7 7 7 7 7
9 10 10 11 11 12 12 11 10 11 12 11 9 9 11 12 13 14 14 14 15 14 11 11 14 13 13 12 9 9 8 6 7 7 8 10 12 14 16 16 17 17 18 17 17 17 17 17 17 17 16 16 15 14 14 13 13 13 12 12 12 11 11 10 10 10 9 9 8 8 8 7 7 7 6 6 6 6 7 7 7 7 7 7 7 7
10 11 11 13 13 13 13 12 12 13 13 12 11 12 13 13 13 14 14 14 14 13 12 13 14 14 14 12 8 9 8 6 7 7 7 8 10 12 14 16 17 18 18 18 18 18 18 18 18 18 18 17 16 16 15 15 14 14 13 13 13 13 12 12 11 11 11 10 9 9 8 8 8 7 6 6 6 6 6 6 7 7 7 7 7 7
10 12 13 14 14 13 13 13 13 14 14 13 13 15 15 15 15 14 14 15 14 13 14 14 14 15 14 11 9 9 9 7 7 8 8 8 9 10 12 14 16 18 19 19 19 19 19 19 20 19 19 18 18 17 17 17 16 16 15 15 15 14 14 13 13 12 12 11 11 10 9 8 8 8 7 7 6 6 6 6 6 7 7 7 7 7
11 12 13 14 14 14 15 15 14 14 15 15 16 17 16 16 16 16 15 15 14 15 14 12 12 13 11 9 9 9 9 8 8 8 8 8 9 10 11 12 14 16 18 20 20 20 20 20 21 21 20 19 19 19 19 18 18 18 17 17 16 16 16 15 15 14 13 13 12 11 10 9 9 8 8 7 7 6 6 6 6 6 6 6 7 7
10 11 12 14 15 16 17 16 14 15 15 16 17 17 15 15 15 16 15 14 15 15 14 11 12 14 12 9 9 9 9 9 9 10 9 9 9 9 10 11 11 13 15 18 20 21 21 21 21 22 22 21 21 21 21 20 19 19 19 18 18 18 17 16 16 16 15 14 13 12 12 11 10 10 9 8 8 7 7 6 6 6 6 6 7 7
10 11 12 14 15 17 17 15 13 12 13 14 14 14 14 13 13 15 14 14 16 13 10 9 11 14 14 11 9 8 8 9 9 10 10 10 9 9 10 10 11 11 13 15 17 19 20 21 22 23 23 23 23 22 22 22 21 21 21 20 19 19 18 17 17 17 16 15 15 14 13 12 11 11 10 9 9 8 7 7 7 7 7 7 7 8
10 12 15 15 15 18 18 15 12 11 10 11 10 10 11 10 9 11 11 12 14 11 9 8 9 12 12 10 10 9 8 8 9 9 10 10 10 10 10 10 11 11 12 13 14 16 18 20 22 23 24 25 24 24 23 23 22 22 22 22 21 20 19 19 18 18 17 16 16 15 14 13 13 12 11 11 10 9 8 8 7 8 8 8 8 8
11 11 15 16 15 18 19 16 13 11 10 9 7 7 7 7 7 8 9 10 10 9 8 8 9 10 10 9 10 9 8 9 9 9 10 10 10 11 11 11 11 11 12 13 13 14 16 18 20 22 24 25 26 26 25 25 24 24 24 23 23 22 21 20 20 19 19 18 17 17 16 15 14 13 13 12 11 10 10 9 9 8 8 8 8 8
13 11 15 18 17 18 18 15 14 12 10 8 5 5 5 5 6 6 6 6 6 6 7 8 8 9 9 8 7 8 9 9 9 9 10 10 10 11 11 11 12 12 12 13 13 14 15 16 18 20 23 24 26 27 26 26 26 25 25 25 25 24 23 22 22 21 20 20 19 18 17 16 15 15 14 13 12 12 11 10 10 9 9 9 9 9
13 12 15 17 16 17 17 15 15 13 9 7 5 4 4 4 5 6 6 5 5 5 6 7 7 7 8 7 6 7 8 9 9 10 10 11 11 11 12 12 12 12 12 13 13 14 15 16 17 18 20 22 25 26 27 27 27 27 27 27 26 26 25 24 23 22 22 21 20 19 19 18 17 16 15 14 13 13 12 11 11 11 10 10 10 10
13 12 14 16 16 16 16 15 16 14 10 8 6 5 4 4 5 7 6 5 6 6 5 6 7 6 8 8 7 8 9 9 10 11 11 11 11 12 12 13 13 13 13 13 14 14 15 16 17 18 19 20 22 24 26 27 28 28 29 28 28 27 27 26 24 23 23 22 21 21 20 19 18 17 16 15 15 14 13 13 12 12 11 11 11 11
13 12 13 16 16 15 14 13 15 16 13 10 8 7 5 3 4 5 6 5 6 5 4 6 6 6 8 8 7 8 9 10 11 13 13 12 12 13 13 13 14 14 14 14 14 14 14 16 17 19 19 19 21 22 24 26 28 29 30 30 29 28 28 27 26 25 24 24 23 22 21 20 19 19 18 17 16 15 14 14 13 13 13 12 12 12
13 11 12 15 15 15 14 13 13 15 14 12 9 8 6 3 1 3 4 5 5 4 4 5 5 4 6 7 7 8 8 9 11 12 13 13 13 13 14 14 15 15 15 15 15 15 15 15 16 18 19 20 20 21 22 24 26 28 30 30 29 28 28 28 28 27 26 25 24 23 22 21 20 20 19 18 17 16 15 15 14 14 14 13 12 12
12 11 11 14 13 13 14 14 13 14 13 11 9 8 7 5 3 3 3 4 4 4 4 4 4 4 5 7 8 8 9 9 10 10 11 13 14 14 14 15 15 15 15 16 16 16 16 15 16 17 19 20 20 21 21 22 23 25 27 28 29 29 29 29 29 28 27 26 26 25 24 23 22 21 20 19 18 17 17 16 15 15 14 14 13 13
11 10 11 13 12 11 12 14 14 14 14 12 10 9 9 6 4 3 2 2 4 4 4 4 4 3 4 6 7 8 9 9 10 10 11 11 12 13 13 14 14 14 15 15 15 15 15 15 15 15 17 19 20 20 20 21 22 23 25 27 29 30 30 30 30 29 28 27 27 27 26 25 23 22 21 21 20 19 18 17 17 16 16 15 14 14
11 10 11 11 12 11 12 13 14 14 13 13 12 11 9 7 5 3 2 2 3 3 3 4 4 2 3 6 7 8 9 9 9 11 11 11 11 11 12 12 12 13 13 13 14 15 15 16 15 15 16 17 18 19 20 20 20 22 23 25 27 29 30 30 30 30 29 29 29 28 27 27 25 23 22 22 21 20 19 19 18 17 17 16 16 15
10 11 10 11 12 11 10 11 12 13 12 11 12 11 10 8 6 4 3 3 3 3 3 5 4 2 4 6 7 8 8 9 10 10 11 11 10 10 10 11 11 11 12 12 13 14 15 15 16 15 15 16 17 18 20 20 20 21 22 24 25 27 29 29 30 30 30 29 29 28 28 28 27 25 24 23 22 21 21 20 19 19 18 18 17 17
10 11 10 9 10 9 9 9 10 11 11 11 11 11 10 9 7 6 5 4 3 3 3 5 3 3 5 6 7 8 8 9 10 10 10 10 10 11 11 11 11 11 11 12 12 13 14 15 15 15 16 16 16 17 18 19 20 21 22 23 24 25 26 27 29 31 30 29 28 28 29 30 29 27 26 24 23 23 22 21 20 20 20 19 18 18
10 11 11 10 9 8 8 9 8 9 11 11 11 11 10 9 7 6 5 3 2 3 4 5 3 3 4 6 7 8 8 9 9 10 10 9 10 11 11 12 11 11 12 12 12 13 13 14 15 15 16 16 16 16 17 17 19 20 20 21 22 24 25 26 27 29 31 31 30 28 28 30 31 29 27 26 25 24 23 22 21 21 21 20 20 19
10 11 11 11 11 10 10 10 9 10 10 10 10 10 10 9 8 7 6 4 3 3 4 4 4 4 5 6 7 8 8 9 9 9 9 9 10 11 11 11 11 11 12 12 12 13 13 13 14 14 15 16 16 16 16 16 16 17 18 19 20 21 23 24 24 26 28 29 28 27 25 25 28 29 27 26 26 25 24 23 23 22 22 21 21 21
9 10 11 11 11 11 11 10 10 10 10 9 9 10 10 10 9 8 7 6 6 4 3 4 5 6 6 7 8 8 9 9 9 9 9 9 10 10 11 11 11 11 12 12 12 13 13 13 13 14 14 15 16 15 15 15 15 16 17 18 18 18 19 19 20 21 23 24 25 25 23 23 24 26 27 27 27 26 25 25 24 23 23 22 22 22
9 9 10 10 10 10 10 9 9 9 9 8 8 9 9 9 9 8 8 8 7 6 4 5 6 6 6 7 8 9 9 9 9 9 10 10 10 10 11 11 11 11 11 12 12 12 13 13 13 14 14 15 15 16 16 16 15 15 15 16 17 17 18 17 17 19 21 22 23 24 24 23 24 25 26 27 27 27 26 26 25 24 24 23 22 22
9 9 9 9 10 10 9 9 8 8 8 7 7 8 8 8 8 8 8 8 8 7 6 6 7 7 7 8 8 9 9 10 10 10 10 10 11 11 11 12 12 11 11 12 12 12 13 13 13 14 14 14 15 15 16 16 16 16 15 15 15 16 17 17 18 19 20 22 23 24 24 24 24 24 25 26 26 25 25 25 25 25 24 23 23 22
10 9 9 9 9 10 9 8 8 8 7 7 7 7 7 7 8 7 7 8 8 7 7 7 7 7 7 8 9 9 10 10 10 10 11 11 12 12 12 13 12 12 12 12 12 13 13 13 14 14 14 15 15 15 15 15 16 17 17 16 16 16 17 18 19 21 21 22 22 23 24 24 24 24 25 25 25 25 24 24 24 25 24 23 23 23
10 9 9 9 9 10 9 8 8 8 7 7 7 7 7 7 7 7 7 7 6 6 7 8 7 6 8 9 10 10 10 10 11 11 11 12 13 13 13 13 13 14 14 14 13 13 13 13 14 14 15 15 16 16 16 15 16 16 17 17 17 17 18 19 20 20 21 22 22 23 23 24 24 25 25 25 26 26 25 24 24 24 24 24 23 23
10 9 8 8 9 9 9 8 7 8 8 8 7 6 7 7 7 7 7 7 6 7 7 7 7 7 9 10 11 11 11 11 11 12 12 12 13 14 14 14 15 14 15 15 15 15 14 14 14 15 15 16 16 16 16 16 16 16 16 17 17 18 18 19 20 20 21 22 23 23 23 24 24 25 25 25 26 26 26 25 25 25 25 24 24 23
11 10 9 9 9 9 8 8 8 9 10 9 7 6 7 7 7 7 7 7 6 6 7 7 8 9 11 11 11 12 12 12 12 13 12 12 13 14 14 15 15 15 16 16 16 16 15 15 15 16 16 16 16 16 16 17 17 16 16 17 17 17 18 19 19 20 21 22 23 23 23 24 24 24 25 25 26 26 27 26 25 25 25 25 24 22
11 10 10 9 10 9 8 8 8 9 10 9 7 7 8 8 8 8 8 8 7 6 7 8 8 10 11 11 12 13 13 13 13 13 12 12 13 14 14 15 15 16 16 16 16 16 16 16 16 16 16 16 16 17 17 17 17 17 17 17 17 17 18 18 19 19 20 21 21 22 23 23 24 24 25 25 25 26 27 26 26 26 25 24 23 22
11 10 10 9 10 10 8 7 9 9 9 8 8 8 9 9 9 9 10 9 7 7 8 8 9 10 11 12 12 13 13 13 13 11 11 12 13 14 14 15 15 15 15 16 16 16 17 17 17 17 17 17 17 17 17 17 17 17 17 16 17 17 17 17 18 18 19 20 20 21 21 22 23 23 24 24 25 25 26 27 26 26 25 23 22 22
11 10 10 9 10 9 8 8 9 10 9 8 9 9 8 9 9 10 11 9 7 8 8 9 10 11 11 12 12 12 13 13 11 9 10 12 13 14 14 14 14 15 15 15 15 16 16 17 17 17 17 17 17 17 17 17 17 17 17 17 16 17 17 17 17 18 18 19 19 20 20 21 22 22 22 23 23 24 25 26 26 25 24 23 22 22
11 10 10 10 10 10 10 10 10 11 10 8 8 8 8 9 10 11 11 10 8 8 9 10 11 11 12 12 12 12 13 12 9 8 11 13 13 13 14 14 14 14 15 15 15 15 16 16 16 17 17 17 17 17 17 18 18 18 18 17 17 17 17 17 17 17 18 18 18 19 19 20 20 21 21 21 21 22 23 24 24 24 23 23 22 23
11 11 11 11 10 10 11 11 11 11 10 8 7 8 9 10 10 11 12 10 8 8 9 10 11 12 12 12 12 13 13 11 9 9 12 13 13 14 14 14 14 14 14 15 15 16 16 16 16 16 16 16 17 17 17 18 18 18 18 18 17 17 17 17 17 17 18 18 18 18 19 19 19 19 20 20 20 21 22 22 23 24 24 24 24 24
11 11 11 11 11 10 11 12 11 11 10 8 8 8 9 9 10 11 12 10 8 9 11 11 12 12 12 13 13 12 12 11 10 11 13 14 14 14 14 15 15 15 15 15 15 16 16 16 16 16 16 16 16 16 17 17 18 18 18 18 18 18 18 18 18 18 18 19 19 19 19 19 19 20 20 20 20 20 20 22 23 24 25 25 25 25
11 11 11 12 11 10 11 12 12 11 10 9 9 9 9 9 10 12 12 9 8 11 12 12 13 13 13 13 13 12 11 11 12 13 15 15 15 15 15 15 16 16 16 16 16 16 16 17 17 17 16 16 16 16 16 16 17 18 18 19 19 19 19 19 19 19 19 20 20 20 20 20 21 21 21 22 21 21 21 21 23 24 25 26 27 26
12 11 12 12 12 11 11 12 13 12 11 10 10 9 9 9 10 12 11 10 10 12 13 13 14 15 14 14 14 13 13 13 14 15 16 16 16 16 16 16 16 16 17 17 17 17 17 17 17 17 17 17 16 16 16 16 16 17 17 18 19 20 20 20 20 20 21 21 21 21 21 22 22 22 22 23 23 23 23 23 23 24 24 26 26 27
12 12 12 12 12 12 12 13 13 13 11 10 10 9 9 10 11 11 12 12 13 14 14 14 15 15 15 15 15 15 15 15 16 16 16 17 17 17 17 17 17 18 18 18 18 17 17 17 17 18 18 17 17 17 16 17 17 17 17 18 18 19 20 21 22 22 22 22 22 22 22 23 23 23 23 23 24 25 25 25 25 25 25 25 26 26
13 13 13 12 12 12 12 13 14 13 11 9 9 10 10 12 13 13 14 14 14 14 15 16 16 16 16 17 17 17 17 17 17 17 18 18 18 18 18 19 19 19 19 19 19 18 18 18 18 18 18 18 18 18 17 18 18 18 18 18 18 18 19 20 21 22 23 23 24 24 24 24 24 24 24 24 25 25 25 26 26 26 26 26 27 27
12 13 14 13 12 13 13 12 13 13 11 10 11 13 13 13 15 16 16 15 15 15 16 16 17 17 18 18 18 19 19 19 19 19 19 19 19 19 20 20 20 20 20 19 19 19 19 19 19 19 19 19 19 19 18 18 18 19 19 19 19 19 19 19 20 21 22 23 24 25 25 25 25 25 25 26 26 26 26 26 26 26 26 28 28 29
13 13 15 14 14 14 14 14 14 14 13 13 14 15 16 16 17 17 16 17 17 16 17 17 18 19 19 19 20 20 20 20 20 20 20 20 20 20 20 20 20 20 20 20 20 20 20 20 20 20 20 20 20 20 20 20 20 20 20 20 19 19 19 19 20 20 21 22 23 24 25 26 26 26 26 26 27 27 27 28 27 26 27 28 29 29
14 14 15 15 15 15 16 16 16 16 16 15 15 16 16 17 18 17 17 17 17 18 18 18 19 20 20 20 21 21 21 21 21 21 21 21 21 21 21 21 21 21 21 21 21 21 21 21 21 21 21 21 21 21 21 21 21 22 22 21 21 20 20 20 20 21 21 22 22 23 24 25 26 27 27 27 28 28 29 29 29 29 29 29 30 30
14 14 15 16 16 16 16 15 15 16 16 16 16 16 17 18 18 17 17 18 18 18 19 19 20 21 21 21 21 21 21 21 22 22 22 22 22 22 22 22 22 22 23 23 23 23 23 23 23 23 23 23 23 23 23 23 23 23 23 23 23 22 21 21 22 22 22 23 23 23 23 24 25 26 27 28 28 29 29 30 30 31 31 31 32 31
14 14 16 16 16 16 17 17 17 17 17 17 17 17 18 18 17 17 17 18 19 19 20 20 21 21 21 21 21 21 21 22 22 23 22 22 23 23 23 24 24 24 24 25 25 25 24 24 24 25 25 25 25 24 25 25 25 25 25 25 24 23 23 23 23 24 24 24 24 23 24 24 25 25 26 27 28 29 30 30 31 31 32 33 33 33
15 15 16 17 17 17 18 18 18 18 18 18 18 18 17 17 17 18 18 19 19 20 20 20 21 21 21 21 21 21 22 22 22 23 23 23 23 24 25 25 26 26 26 26 26 26 26 25 25 25 25 25 26 26 26 26 26 26 26 26 25 24 24 25 25 25 25 25 25 24 24 24 25 25 26 27 27 28 29 30 31 32 32 33 33 34
16 16 16 16 17 17 17 17 17 18 18 18 17 17 17 17 18 19 19 19 20 20 20 20 20 20 21 21 21 21 22 22 22 24 24 24 25 25 26 26 26 26 26 26 26 26 26 26 25 25 25 26 26 27 27 27 26 27 27 26 25 25 25 26 26 26 26 26 25 25 25 25 25 25 26 27 27 28 29 30 30 31 32 32 32 33
16 17 17 16 17 17 17 18 18 19 19 19 18 18 18 18 19 20 20 20 20 20 20 20 20 20 20 21 21 22 22 23 24 24 25 25 26 26 26 26 26 26 26 26 26 26 26 26 25 25 25 26 27 27 27 27 27 27 27 27 26 26 27 27 27 27 27 26 26 26 26 26 26 26 26 27 27 28 28 29 29 30 31 31 32 33
Wind_Direction
286 282 291 301 304 305 299 282 271 270 264 255 250 246 243 244 244 243 246 248 247 249 247 246 248 249 249 248 246 244 238 235 234 233 232 229 225 224 223 224 226 230 232 230 228 229 230 233 235 236 239 237 235 237 238 237 238 240 241 234 228 228 230 234 241 248 251 258 272 289 304 314 323 329 333 336 339 342 346 348 349 348 348 345 337 320
291 295 310 309 307 306 301 289 276 267 260 255 250 245 243 242 242 244 248 248 245 247 245 242 246 247 246 247 247 246 242 235 233 234 233 231 229 227 226 226 227 229 230 228 227 229 230 232 234 235 237 235 234 235 235 238 240 241 243 237 232 232 236 240 245 249 253 259 269 281 293 302 310 317 322 327 329 333 338 341 343 345 347 347 342 326
293 315 322 313 308 303 300 296 282 269 261 256 251 247 246 241 242 246 247 244 243 245 242 242 247 247 245 248 249 248 244 238 235 236 235 233 231 229 228 228 228 228 229 229 229 229 230 231 232 234 235 234 234 233 234 238 240 241 243 241 238 237 241 244 245 250 255 261 268 276 287 296 303 310 315 321 325 329 334 336 338 341 343 346 346 338
307 327 326 313 306 299 298 300 290 278 266 261 257 251 247 244 245 244 238 237 242 245 248 251 250 248 247 246 245 245 244 238 235 236 237 236 233 231 231 231 231 231 231 230 230 230 230 230 232 234 234 232 233 233 234 238 241 242 244 244 243 243 244 245 247 252 257 260 266 274 284 293 298 305 310 316 321 325 331 334 335 338 339 341 345 346
333 330 322 310 306 301 297 302 298 286 273 267 267 262 258 259 255 248 243 244 245 246 249 252 250 246 243 240 237 237 240 238 237 238 239 238 234 233 235 235 235 235 234 233 232 230 230 230 232 234 234 232 231 232 235 238 242 245 246 246 247 247 248 248 248 251 254 258 264 270 279 288 293 298 302 307 313 319 325 331 334 337 338 340 342 345
343 331 320 312 309 305 298 300 303 292 277 270 272 273 270 269 262 254 253 253 251 247 244 250 252 242 233 237 240 239 240 238 236 239 242 240 236 234 235 236 236 236 236 236 235 233 231 231 232 233 233 232 232 233 236 239 243 245 247 248 248 249 250 249 248 248 252 256 261 266 272 280 284 289 295 299 306 313 321 327 331 335 337 340 342 343
340 333 326 320 312 306 299 297 303 298 281 269 271 278 275 269 263 257 255 253 254 252 242 246 253 243 231 235 243 241 237 237 235 238 248 249 243 240 239 237 236 237 236 236 236 236 234 232 231 232 233 234 235 236 238 241 243 245 248 248 249 251 251 250 248 248 251 255 259 264 269 274 277 282 288 294 301 309 315 321 325 329 333 337 339 340
342 340 335 329 318 308 304 299 300 297 282 274 277 278 274 270 266 262 256 252 255 255 248 246 250 249 241 236 240 239 234 242 248 246 255 260 255 250 247 243 241 240 239 237 237 237 236 234 232 233 234 236 237 238 239 242 244 245 248 249 250 251 251 250 249 248 251 255 258 262 266 269 272 275 280 285 293 301 308 314 319 323 327 331 334 335
345 345 341 335 327 318 314 307 301 293 281 280 285 278 271 267 265 263 258 254 254 253 253 249 245 249 246 233 234 240 242 255 259 254 260 266 263 256 254 251 249 246 243 241 239 238 236 235 234 234 236 237 238 240 242 244 245 246 249 250 250 251 252 251 250 249 251 253 256 259 263 265 267 269 271 276 284 291 298 305 311 317 321 326 330 331
348 346 344 342 335 328 321 311 303 294 282 282 285 277 266 260 259 257 255 253 251 250 252 250 242 245 243 234 242 247 251 263 262 255 258 264 265 261 259 258 256 253 248 244 242 240 239 237 235 235 236 237 238 241 243 245 247 247 248 249 249 251 252 252 251 251 251 251 254 257 259 260 260 262 265 269 275 281 289 296 302 308 315 321 325 327
355 349 347 347 343 335 326 315 306 297 289 282 278 273 265 262 260 254 250 248 248 248 247 247 247 247 245 245 253 251 254 265 264 259 260 263 265 263 262 262 262 260 254 248 245 244 242 239 238 237 235 236 239 242 244 246 248 248 248 249 249 250 251 251 251 251 251 251 253 255 256 255 255 256 259 262 266 272 279 287 293 299 307 315 320 323
2 358 355 352 349 344 334 323 314 304 299 289 277 269 265 267 265 256 248 243 242 240 238 245 250 247 244 247 253 251 255 264 266 265 266 268 267 264 264 264 266 266 261 255 251 248 245 243 241 240 237 236 238 242 244 245 247 248 248 249 249 250 251 251 250 250 251 252 253 253 252 252 252 252 255 257 261 266 270 276 283 290 297 305 312 317
358 3 0 355 353 351 345 336 329 320 314 302 285 270 261 261 259 254 248 242 241 236 235 252 257 245 239 245 253 256 259 264 267 269 270 272 271 267 266 266 266 268 266 263 259 254 250 247 244 243 241 239 239 241 244 245 246 248 248 248 249 250 250 251 250 250 250 251 252 250 248 249 250 251 253 254 258 261 265 270 274 280 288 295 302 309
359 5 2 358 355 355 353 349 343 335 328 320 307 282 262 254 252 250 245 242 244 240 236 246 251 240 232 241 256 256 256 264 268 270 272 274 272 268 268 267 266 268 269 268 266 261 256 252 250 246 244 244 243 242 244 246 247 247 247 248 249 249 249 251 250 249 248 249 250 249 247 247 248 249 251 253 255 257 261 265 269 275 282 288 295 301
358 2 4 1 358 358 360 0 355 344 335 334 326 293 267 255 257 256 250 249 249 236 226 227 235 237 230 235 259 259 256 264 267 268 270 270 270 267 266 268 267 267 268 267 267 266 263 260 256 252 249 248 246 244 244 246 247 247 247 247 248 248 248 250 250 248 248 249 249 247 246 246 246 248 250 251 252 254 257 261 266 272 277 283 290 296
357 4 8 5 2 3 7 9 5 358 353 356 343 309 275 253 259 261 260 275 276 251 231 225 231 238 228 232 263 268 263 270 273 275 274 271 272 269 266 268 269 269 268 266 266 267 267 265 261 257 254 252 249 246 245 246 246 247 248 247 247 247 248 248 248 247 247 248 248 247 246 246 246 246 248 249 250 252 255 259 264 270 274 280 286 292
0 7 12 8 8 12 12 13 15 12 9 6 359 350 326 276 265 263 256 263 269 257 244 234 232 232 229 239 272 281 275 279 281 282 280 276 276 274 271 271 271 272 271 268 267 268 270 269 264 261 258 256 254 251 248 248 248 248 248 247 246 246 246 246 246 246 248 249 248 247 246 246 246 245 245 246 247 250 253 257 262 267 272 278 283 289
360 3 15 10 11 17 14 12 18 19 15 13 16 12 348 295 261 263 260 257 258 255 251 243 238 240 243 252 281 293 288 286 282 280 280 279 279 277 275 275 274 274 273 271 270 270 273 273 269 264 262 260 259 256 254 253 252 250 249 248 246 244 243 243 245 247 248 248 247 246 245 246 245 244 244 245 246 249 252 256 260 265 269 275 280 285
0 3 18 14 12 19 18 14 17 22 25 26 28 23 9 354 311 277 267 268 269 265 257 240 234 253 264 269 290 302 300 297 289 283 279 280 280 278 277 278 278 277 275 273 272 271 273 276 274 268 264 264 262 260 260 258 256 253 251 249 246 242 242 243 243 245 247 246 245 244 244 245 245 244 244 244 245 248 251 253 257 262 267 272 277 281
4 6 16 16 15 18 21 21 20 22 27 29 30 29 23 14 360 335 290 279 281 277 271 251 238 254 273 278 290 300 303 304 302 295 288 284 283 280 280 282 282 280 278 276 274 273 274 277 278 273 267 265 264 262 261 261 259 256 252 250 246 243 242 243 242 243 245 244 243 243 244 243 243 243 243 243 244 246 249 252 256 261 265 270 274 278
5 7 12 16 18 18 21 24 22 21 23 24 25 25 21 15 10 1 330 300 295 288 290 281 261 261 281 285 293 301 301 300 304 305 300 293 288 284 284 284 282 281 280 278 276 276 275 277 280 279 272 267 265 265 263 262 260 257 253 250 248 246 244 243 242 243 244 243 243 243 243 242 242 243 242 242 243 246 249 252 256 259 264 269 273 276
6 6 7 13 17 20 24 26 23 21 20 21 23 23 17 11 3 345 346 349 316 303 302 294 284 281 291 295 302 304 301 301 304 304 302 300 297 291 289 288 285 283 283 281 279 278 278 278 279 280 279 273 268 267 266 264 261 258 255 252 250 248 246 245 243 242 243 243 243 243 242 241 242 242 241 241 243 246 250 253 255 258 262 267 271 274
5 2 4 11 16 19 25 26 22 20 20 21 23 21 16 14 8 350 348 346 319 304 296 290 289 291 297 304 309 308 308 309 309 306 302 301 301 299 298 296 292 290 288 287 285 283 282 280 278 279 281 280 275 270 267 266 263 261 259 256 252 250 248 246 243 241 243 242 241 242 243 241 241 241 241 241 244 247 249 252 255 258 261 265 269 271
3 0 1 6 12 17 21 19 18 18 19 21 20 17 14 14 14 7 357 341 321 320 304 290 286 290 299 308 312 313 315 315 315 314 308 303 302 302 303 301 298 296 294 293 292 289 287 285 282 280 281 282 281 276 271 267 264 264 264 259 254 251 249 247 243 241 241 240 240 243 245 242 240 240 241 242 245 247 249 251 254 257 260 263 266 269
2 2 359 357 3 11 12 12 15 16 17 19 18 14 13 11 11 14 11 355 341 343 324 308 307 309 307 313 319 320 321 322 325 324 318 312 309 307 306 303 300 298 296 295 295 293 292 291 287 285 283 283 283 281 278 271 266 265 265 262 257 252 250 249 247 242 240 241 243 245 247 245 240 239 241 243 245 247 248 251 254 256 259 261 263 266
359 1 0 359 3 7 7 9 11 9 9 14 16 15 14 12 8 7 7 4 9 3 344 333 331 324 317 321 329 331 329 327 329 328 326 321 318 315 312 308 304 300 298 298 297 295 294 293 291 290 287 285 285 284 283 279 272 267 265 264 261 255 250 251 249 243 240 241 242 243 246 245 239 237 240 242 244 246 248 250 252 255 257 259 261 263
357 2 3 2 2 3 4 6 7 3 3 9 15 16 17 14 7 2 2 8 12 8 9 3 336 321 324 329 331 332 330 327 328 329 328 325 322 320 318 316 311 306 302 301 300 299 297 295 294 294 290 287 285 284 284 283 280 274 267 265 262 256 250 249 247 243 239 240 241 242 244 243 238 238 241 243 246 248 250 251 252 253 255 257 259 261
352 358 1 0 1 1 0 2 3 2 4 7 10 13 15 13 9 8 9 8 2 355 6 9 343 329 335 336 331 330 327 324 324 324 323 322 321 321 320 320 319 314 309 305 303 302 301 298 296 295 294 290 286 284 282 281 281 279 273 268 263 258 252 249 247 245 244 243 243 244 244 243 243 243 244 246 249 250 251 251 252 252 253 255 258 259
348 355 357 354 357 359 356 358 3 5 7 7 5 8 12 12 12 12 8 2 357 355 360 0 348 341 343 337 332 331 327 322 319 317 315 317 318 319 319 319 320 319 317 313 309 306 303 301 298 297 295 291 289 287 284 281 279 277 276 273 268 261 256 251 250 250 249 248 247 247 246 247 248 248 247 247 248 249 250 250 251 252 253 255 256 258
351 354 354 348 351 357 356 356 360 1 3 4 1 1 5 6 8 8 4 360 359 360 358 350 343 345 347 341 334 330 326 321 316 312 311 314 315 316 316 316 317 317 317 316 314 310 307 303 300 300 298 294 291 290 287 284 281 278 277 275 271 266 262 257 255 254 253 252 250 250 250 251 252 252 251 249 248 248 249 249 249 250 251 253 255 257
349 350 350 343 344 355 358 355 355 355 357 358 356 356 357 355 355 356 355 354 351 352 351 342 336 343 348 343 335 330 326 322 318 315 312 311 312 313 314 315 315 315 315 314 312 311 309 306 303 301 300 297 294 291 289 288 285 282 280 278 274 271 267 263 261 259 257 255 253 252 253 254 254 254 253 250 248 247 248 248 248 249 250 251 255 257
348 348 349 339 337 350 355 348 348 348 343 337 337 345 349 347 346 346 344 342 339 340 341 336 335 342 342 339 336 335 332 328 325 322 318 314 312 312 312 313 312 313 313 312 311 310 309 307 306 305 303 300 296 294 291 289 287 284 282 281 277 274 271 267 264 262 259 258 257 256 256 256 256 255 254 251 249 248 248 248 248 249 249 251 254 255
347 344 346 340 335 344 349 341 338 335 329 328 333 341 342 340 340 338 333 331 330 329 334 336 338 338 335 333 335 336 335 332 328 325 323 320 317 316 314 313 312 311 311 310 309 309 307 306 305 305 304 301 298 296 294 291 288 285 283 281 279 276 273 270 268 266 263 262 261 260 259 257 256 256 255 254 252 250 248 248 248 247 248 250 252 250
347 342 345 342 335 341 347 339 330 328 330 339 344 339 334 332 333 332 327 322 318 316 322 326 329 331 330 330 331 332 334 333 328 326 326 324 322 321 320 318 316 313 311 308 307 306 305 304 303 302 302 301 299 297 296 293 290 286 284 282 280 278 275 273 271 270 268 266 263 262 260 259 258 259 257 255 253 251 248 246 247 246 246 247 246 243
347 344 344 340 335 338 342 333 327 331 338 342 338 332 330 329 328 326 322 316 311 309 311 315 321 327 327 326 326 327 331 332 330 330 331 330 328 327 324 322 321 319 315 312 310 308 306 304 303 301 300 299 298 296 295 294 292 289 286 284 282 280 278 277 275 272 270 268 267 264 262 260 260 260 257 254 253 252 248 246 246 245 242 240 239 238
345 344 342 339 335 336 332 324 328 337 338 332 329 327 324 323 324 324 320 317 312 310 310 312 318 322 323 322 323 325 327 329 329 334 337 336 334 332 329 328 327 325 324 321 319 316 312 309 305 303 300 297 296 295 295 294 293 290 288 286 284 281 279 279 278 276 273 272 270 267 264 262 261 260 258 255 254 251 248 246 244 239 235 235 236 238
342 341 340 337 334 331 325 320 322 326 323 320 324 328 325 325 327 326 321 318 313 311 311 313 316 320 321 321 322 323 323 321 320 330 337 337 335 334 333 332 331 330 329 328 327 324 321 317 313 310 305 300 297 295 294 293 293 291 289 287 285 283 280 279 278 277 276 274 273 270 266 264 263 261 259 257 253 249 246 243 238 233 232 234 236 238
341 339 336 334 332 328 324 321 319 320 323 326 328 331 330 327 325 323 319 314 310 313 314 314 317 319 319 319 321 321 319 315 312 321 330 333 332 331 331 332 333 331 330 330 330 329 327 325 322 318 314 309 304 299 296 293 292 290 288 287 286 285 283 281 279 278 277 276 274 271 269 268 265 262 260 257 253 248 244 241 237 234 236 239 240 241
336 335 332 329 328 326 323 321 319 321 326 329 327 326 325 321 321 320 316 311 309 314 316 315 315 316 316 317 318 317 316 313 311 317 323 325 326 326 327 328 329 329 329 329 330 330 329 328 326 324 321 318 313 309 303 298 294 290 288 287 286 285 284 282 280 278 277 276 275 272 270 268 265 262 260 257 254 251 247 243 240 239 240 241 241 241
331 332 330 326 326 328 324 320 319 322 324 322 320 321 321 320 318 315 315 316 315 315 316 315 313 314 313 314 313 312 312 311 310 314 318 318 319 320 321 322 324 325 325 326 326 327 327 327 327 328 327 324 320 317 312 307 301 295 291 288 286 285 284 283 281 279 277 276 275 273 271 268 266 264 261 258 256 253 249 246 243 242 242 241 239 240
328 329 328 325 325 327 324 318 318 322 323 318 315 317 317 315 312 311 316 321 317 314 315 314 312 311 311 311 309 307 307 308 307 309 312 312 313 315 316 317 318 319 320 321 321 321 321 323 324 325 325 325 322 320 317 314 310 305 299 294 290 286 285 283 281 280 279 277 275 274 272 269 267 265 262 259 256 253 250 248 246 245 243 240 237 239
329 328 327 325 324 325 324 320 317 320 323 320 317 316 311 309 313 315 315 314 312 311 313 312 310 311 310 309 307 305 305 305 304 306 308 310 311 311 311 312 314 315 316 317 317 318 318 318 319 320 321 321 321 319 318 316 314 310 306 302 297 293 289 285 282 280 279 277 276 275 273 270 268 266 264 261 257 254 252 250 249 248 245 240 237 238
330 327 325 326 326 324 323 320 318 321 324 321 319 316 307 304 314 318 312 308 308 308 308 309 310 311 310 308 307 306 304 304 303 303 305 307 308 308 308 309 310 311 312 313 314 315 315 315 316 317 317 317 317 316 316 314 313 312 309 307 303 299 295 290 286 282 280 278 277 275 273 271 268 266 265 262 259 256 254 252 250 250 247 242 240 241
327 325 325 327 326 323 323 324 325 325 322 312 310 313 308 304 309 313 309 307 307 306 306 308 309 310 309 307 305 305 304 304 303 303 304 304 305 305 306 306 306 307 309 310 310 311 311 312 313 314 315 315 314 313 312 311 310 310 309 308 305 302 299 296 292 288 284 281 278 276 274 272 269 267 265 263 260 258 256 254 252 251 249 245 244 245
325 325 326 324 320 318 318 319 321 321 317 309 306 310 309 307 307 307 305 305 305 305 306 307 307 308 308 306 305 304 304 303 303 303 303 303 303 304 304 305 305 305 306 307 307 307 307 308 309 311 312 313 313 312 310 309 307 306 306 306 305 303 301 299 296 294 291 287 282 278 276 273 271 268 266 263 261 259 257 255 253 251 249 247 246 247
322 322 322 320 318 317 315 312 312 312 311 309 308 308 309 309 308 307 304 303 304 305 305 305 305 306 307 306 305 304 303 304 303 303 303 303 303 304 304 304 303 303 304 304 305 305 305 305 306 308 309 310 311 311 310 308 306 304 303 302 302 301 300 299 299 297 295 292 288 283 279 276 273 270 266 263 261 260 258 256 253 251 250 249 248 248
318 318 316 315 315 318 318 316 317 315 313 311 310 310 310 309 308 307 305 303 304 304 304 303 303 303 304 304 304 303 303 303 303 303 303 303 303 304 304 303 303 302 302 303 303 303 303 303 304 305 306 307 308 308 308 307 306 304 302 301 299 298 297 297 298 298 297 294 291 287 283 279 276 273 269 265 262 260 258 257 255 252 251 250 249 248
320 319 316 313 311 312 314 315 315 313 311 310 310 311 312 311 310 309 307 305 305 304 304 303 302 302 303 303 303 302 302 302 303 303 303 303 303 303 303 303 302 301 301 300 300 301 300 300 301 301 302 304 305 305 305 305 304 304 303 300 298 297 295 295 296 296 296 294 292 289 285 282 279 276 273 269 264 260 258 257 255 253 251 250 249 248
321 318 316 316 314 312 312 313 312 311 310 310 308 309 312 313 313 312 310 308 307 307 306 305 304 304 305 305 304 303 303 303 303 304 304 304 303 303 303 303 302 301 300 299 299 299 298 298 299 299 299 301 303 304 303 303 302 302 302 301 298 295 294 294 295 295 294 292 290 288 286 284 281 278 275 272 268 263 260 257 255 254 253 251 249 247
315 314 314 315 315 314 316 318 317 315 315 316 314 312 312 314 314 313 312 311 311 310 309 308 307 306 307 307 306 305 304 304 304 304 305 304 304 305 305 305 304 302 301 300 299 298 298 298 298 297 297 299 302 303 303 302 302 301 301 300 297 294 293 294 294 294 293 292 290 288 287 285 282 279 276 273 270 267 263 259 257 256 255 252 250 248
310 312 313 313 313 314 316 316 316 314 314 315 315 313 312 314 314 313 313 314 313 312 311 310 309 309 308 308 307 306 305 305 306 306 306 306 306 307 307 306 306 305 303 302 301 300 299 299 298 298 298 300 302 304 304 303 302 301 300 300 298 295 293 293 293 293 293 292 290 288 287 285 283 280 277 274 271 269 266 262 258 257 256 255 251 249